Flag for U.S.A. Weather for the Past 2 Weeks in Warminster Township, Pennsylvania, U.S.A.

Now
10 °F

Clear.


Feels Like: 4 °F
Forecast: 11 / 25 °F
Wind: 3 mph from West

Location: Doylestown Airport

Current Time: Feb 12, 2016 at 7:06:55 AM

Latest Report: Feb 12, 2016 at 5:54 AM


Visibility: 10 mi

Pressure: 30.29 "Hg

Humidity: 61%

Dew point: -1 °F

Location of Warminster TownshipLocation

Historic Weather in Warminster Township — Graph

°F

Warminster Township Temperature Yesterday

Maximum temperature yesterday: 23 °F (at 1:54 PM)
Minimum temperature yesterday: 16 °F (at 11:54 PM)
Average temperature yesterday: 19 °F

High & Low Weather Summary for the Past Weeks

 TemperatureHumidityPressure
High55 °F (Jan 31, 2:54 PM)100% (Feb 1, 7:54 PM)30.45 "Hg (Feb 1, 7:54 PM)
Low10 °F (Feb 12, 5:54 AM)29% (Feb 7, 1:54 PM)29.51 "Hg (Jan 29, 4:54 AM)
Average34 °F69%29.96 "Hg
* Reported Jan 28 5:54 AM — Feb 12 5:54 AM, Warminster Township, Weather by CustomWeather, © 2016

Note: Actual official high and low records may vary slightly from our data, if they occured in-between our weather recording intervals... More about our weather records

Advertising

Warminster Township Weather History for the Previous 24 Hours

 ConditionsComfort  
Time TempWeatherWind HumidityBarometerVisibility
5:54 AM
Fri, Feb 12
10 °FClear.3 mph61%30.29 "Hg10 mi
4:54 AM11 °FClear.3 mph59%30.28 "Hg10 mi
3:54 AM12 °FClear.5 mph53%30.28 "Hg10 mi
2:54 AM13 °FClear.3 mph51%30.27 "Hg10 mi
1:54 AM14 °FClear.5 mph49%30.26 "Hg10 mi
12:54 AM15 °FClear.7 mph46%30.27 "Hg10 mi
11:54 PM
Thu, Feb 11
16 °FClear.7 mph45%30.25 "Hg10 mi
10:54 PM17 °FPassing clouds.9 mph42%30.24 "Hg10 mi
9:54 PM17 °FOvercast.3 mph68%30.22 "Hg10 mi
8:54 PM17 °FPassing clouds.5 mph68%30.20 "Hg10 mi
7:54 PM17 °FPassing clouds.6 mph70%30.18 "Hg10 mi
6:54 PM18 °FPassing clouds.10 mph59%30.14 "Hg10 mi
5:54 PM19 °FPassing clouds.12 mph54%30.11 "Hg10 mi
4:54 PM20 °FMostly cloudy.10 mph57%30.08 "Hg10 mi
3:54 PM22 °FBroken clouds.16 mph48%30.03 "Hg10 mi
2:54 PM23 °FMostly cloudy.16 mph35%30.00 "Hg10 mi
1:54 PM23 °FMostly cloudy.15 mph36%29.98 "Hg10 mi
12:54 PM21 °FOvercast.18 mph41%29.98 "Hg10 mi
11:54 AM21 °FOvercast.17 mph36%29.99 "Hg10 mi
10:54 AM21 °FPassing clouds.18 mph47%30.00 "Hg10 mi
8:54 AM18 °FLight snow. Mostly cloudy.8 mph71%29.98 "Hg6 mi
7:54 AM18 °FOvercast.8 mph59%29.95 "Hg10 mi
Weather by CustomWeather, © 2016

See weather overviewHow to use our weather pages